Location: Zagreb
(45.8000°N, 16.0000°E)
Time: 03:23:28
(UTC+01:00)

S-56A Canister/Altair - Pass Details

Date: 06 October 2020
Orbit: 633 x 2499 km, 38.9° (Epoch: 25 October)

Event Time Altitude Azimuth Distance (km) Brightness Sun altitude
Rises 19:08:45 0° 283° (WNW) 6,179 14.1 -8.3°
Reaches altitude 10° 19:13:29 10° 275° (W) 5,109 13.4 -9.1°
Maximum altitude 19:25:21 32° 221° (SW) 3,220 11.1 -11.2°
Drops below altitude 10° 19:34:53 10° 163° (SSE) 4,057 11.0 -12.8°
Sets 19:38:11 0° 154° (SSE) 4,784 11.3 -13.4°
